Time,B instrument,Bx,By,Bz,sigma B,Ion instrument,Status,Tp_par,Tp_perp,carrot,r_sun,clat,clong,earth_he_angle,n_p,vp_x,vp_y,vp_z,vth_p_par,vth_p_perp
1980-01-19 00:53:35,-1,nan,nan,nan,nan,1,3,nan,nan,1690,0.88090801,3.0278587,0.90576172,292.9292,nan,392.023,16.7136,-3.62516,nan,nan
1980-01-19 00:54:56,1,4.71429,-4.95714,5.7,0.397441,1,1,80575.5,52660.0,1690,0.88091213,3.0277901,0.89404297,292.9292,4.95455,387.72,12.5231,-3.38937,36.472,29.4848
1980-01-19 00:56:17,1,4.87143,-5.07143,5.58571,0.311022,1,1,56133.2,51980.2,1690,0.88092035,3.0276518,0.88208008,292.92896,4.82042,386.453,16.9572,-2.32416,30.4416,29.2939
1980-01-19 00:57:38,1,4.52857,-4.97143,5.71429,0.28212,1,1,69763.0,60415.5,1690,0.88092446,3.0275822,0.87036133,292.92896,4.99485,387.32,15.5016,-2.61476,33.9368,31.5815
1980-01-19 00:59:01,1,4.5,-5.1125,5.775,0.224653,1,1,46827.8,46825.4,1690,0.88093269,3.0274439,0.85449219,292.92871,4.46067,388.945,16.4998,-4.88429,27.8042,27.8034
1980-01-19 01:00:22,1,4.08571,-5.04286,5.27143,0.338062,1,1,84918.0,51625.9,1690,0.8809368,3.0273752,0.84277344,292.92871,5.39638,389.924,14.2689,1.74689,37.4419,29.1939
1980-01-19 01:01:43,1,3.97143,-5.05714,5.85714,0.322617,1,1,59372.8,58139.9,1690,0.88094085,3.0273056,0.83081055,292.92847,5.86977,391.005,16.4599,-2.11843,31.3077,30.981
1980-01-19 01:03:04,1,4.0,-5.12857,5.41429,0.307724,1,1,94042.5,52044.8,1690,0.88094908,3.0271673,0.81884766,292.92822,5.53819,391.278,11.3627,-1.16854,39.4022,29.3121
1980-01-19 01:04:25,1,3.87143,-5.42857,5.57143,0.663633,1,1,52002.8,55387.1,1690,0.88095319,3.0270977,0.80712891,292.92822,4.76506,391.381,17.1933,-7.6643,29.3002,30.2386
1980-01-19 01:05:46,1,4.075,-5.3875,4.8,0.41889,1,1,71985.9,56678.6,1690,0.88095731,3.027029,0.79516602,292.92798,5.47006,390.882,16.7739,6.43478,34.4732,30.5892
1980-01-19 01:07:07,1,3.47143,-5.41429,5.62857,0.477664,1,1,57116.1,48270.3,1690,0.88096547,3.0268908,0.78344727,292.92798,5.6073,389.831,15.9492,0.0669485,30.707,28.2292
1980-01-19 01:08:28,1,3.55714,-5.64286,5.28571,0.840311,1,1,82082.9,55156.7,1690,0.88096958,3.0268211,0.76757813,292.92773,5.22505,398.062,12.8822,-6.92826,36.8116,30.1757
1980-01-19 01:09:49,1,2.45714,-4.88571,5.35714,1.19659,1,1,64427.7,51216.3,1690,0.8809737,3.0267525,0.75585938,292.92773,5.59363,397.642,16.2886,-4.71432,32.6133,29.0778
1980-01-19 01:11:10,1,1.67143,-4.0,6.98571,0.293466,1,1,113940.0,57402.5,1690,0.88098192,3.0266142,0.74389648,292.92749,6.69608,397.069,19.8372,-9.48557,43.3707,30.7839
1980-01-19 01:12:31,1,0.328571,-2.98571,6.45714,0.621059,1,1,106548.0,69706.6,1690,0.88098603,3.0265446,0.73193359,292.92725,8.50955,398.677,23.2654,-14.3479,41.9401,33.923
1980-01-19 01:13:52,1,-0.457143,-1.94286,6.21429,0.44767,1,1,65699.4,86582.9,1690,0.88099015,3.026475,0.72021484,292.92725,9.04645,403.307,19.4107,-20.203,32.9336,37.8072
1980-01-19 01:15:13,1,0.7,-3.1625,4.85,0.268968,1,1,89286.8,56447.1,1690,0.88099831,3.0263367,0.70825195,292.927,7.3615,401.414,23.4109,-15.852,38.393,30.5266
1980-01-19 01:16:34,1,0.3,-2.8375,5.75,0.312,1,1,92224.2,76879.3,1690,0.88100243,3.026268,0.69262695,292.927,8.85388,397.274,26.5134,-14.9421,39.0194,35.6256
1980-01-19 01:17:55,1,-0.442857,-4.54286,2.31429,0.684821,1,1,95723.5,42085.7,1690,0.88100654,3.0261984,0.68066406,292.92676,7.83395,402.395,31.019,3.02236,39.7528,26.3588
1980-01-19 01:19:16,1,-2.07143,-4.41429,0.314286,0.482764,1,1,73361.1,51732.3,1690,0.88101476,3.0260601,0.66870117,292.92651,8.76366,412.438,33.3382,18.147,34.8009,29.2239
1980-01-19 01:20:37,1,0.128571,-4.75714,4.94286,0.903056,1,1,86329.3,83262.0,1690,0.88101888,3.0259914,0.65698242,292.92651,9.20053,397.97,27.5798,-9.46721,37.7517,37.075
1980-01-19 01:21:58,1,0.8375,-5.1125,5.35,0.365291,1,1,103777.0,69953.0,1690,0.88102293,3.0259218,0.64501953,292.92627,6.96844,399.137,20.4092,-2.83094,41.3913,33.9829
1980-01-19 01:23:19,1,0.9,-3.94286,4.32857,0.70826,1,1,87857.8,88104.2,1690,0.88103116,3.0257835,0.63330078,292.92627,9.20544,398.071,27.3558,-6.43443,38.0845,38.1379
1980-01-19 01:24:40,1,0.728571,-4.02857,5.15714,0.390186,1,1,90040.5,80211.3,1690,0.88103527,3.0257139,0.61743164,292.92603,7.72833,395.61,17.9503,-2.31138,38.5547,36.3895
1980-01-19 01:26:01,1,1.08571,-4.41429,4.52857,0.541351,1,1,88691.0,88616.9,1690,0.88104349,3.0255756,0.60546875,292.92578,8.19024,396.296,20.6087,-1.4399,38.2646,38.2487
1980-01-19 01:27:22,1,1.4375,-3.7375,3.8,0.420936,1,1,96722.7,87167.3,1690,0.88104755,3.025507,0.59375,292.92578,9.03578,393.973,28.3809,-0.441094,39.9597,37.9345
1980-01-19 01:28:43,1,1.32857,-3.21429,3.52857,0.81391,1,1,87117.6,83024.8,1690,0.88105166,3.0254374,0.58178711,292.92554,8.57852,393.277,26.7931,2.59661,37.9237,37.0222
1980-01-19 01:30:04,1,1.82857,-4.27143,3.74286,0.279212,1,1,72729.9,62402.7,1690,0.88105989,3.0252991,0.57006836,292.92554,7.31535,391.358,33.9523,-1.12414,34.6509,32.0966
1980-01-19 01:31:25,1,1.95,-4.1,3.1625,0.278107,1,1,89742.0,62008.5,1690,0.881064,3.0252295,0.55810547,292.92529,7.39198,391.047,28.5265,1.70544,38.4907,31.9951
1980-01-19 01:32:46,1,2.21429,-4.14286,2.82857,0.277746,1,1,67119.2,69388.1,1690,0.88106811,3.0251608,0.54248047,292.92529,7.18159,388.985,32.5872,3.13198,33.2875,33.8455
1980-01-19 01:34:07,1,1.75714,-4.3,2.82857,0.314286,1,1,82772.9,72774.9,1690,0.88107628,3.0250225,0.53051758,292.92505,8.12019,392.009,28.8077,-0.496596,36.966,34.6616
1980-01-19 01:35:28,1,0.414286,-4.05714,1.05714,0.434718,1,1,110063.0,70287.9,1690,0.88108039,3.0249529,0.51855469,292.9248,8.16715,398.189,31.4674,10.7348,42.6264,34.0642
1980-01-19 01:36:49,1,1.58571,-4.24286,1.42857,0.950188,1,1,103027.0,51599.9,1690,0.8810845,3.0248842,0.50683594,292.9248,7.70182,392.812,30.2494,2.81109,41.2415,29.1865
1980-01-19 01:38:10,1,2.075,-5.2125,1.6,0.436427,1,1,60256.5,49442.0,1690,0.88109273,3.0247459,0.49487305,292.92456,6.89072,389.798,37.8978,6.83713,31.5399,28.5697
1980-01-19 01:39:31,1,2.32857,-5.04286,1.57143,0.308386,1,1,114110.0,49496.9,1690,0.88109684,3.0246763,0.4831543,292.92456,7.50959,390.854,28.3665,1.77366,43.4029,28.5856
1980-01-19 01:40:52,1,2.1,-5.21429,1.4,0.348173,1,1,60677.2,50161.9,1690,0.88110095,3.0246067,0.47119141,292.92432,7.48454,391.141,38.8985,7.31351,31.6498,28.777
1980-01-19 01:42:13,1,3.525,-4.9875,4.5625,0.418703,1,1,81479.3,60404.0,1690,0.88110912,3.0244684,0.45532227,292.92407,7.78207,391.972,21.8965,3.28881,36.676,31.5784
1980-01-19 01:43:34,1,3.98571,-5.24286,4.87143,0.316228,1,1,66639.1,46530.7,1690,0.88111323,3.0243998,0.44360352,292.92407,6.29071,396.746,19.4557,3.96866,33.1682,27.7158
1980-01-19 01:44:55,1,3.1,-2.15714,5.34286,0.349343,1,1,82981.6,73501.2,1690,0.88111734,3.0243301,0.43164063,292.92383,11.4476,395.302,15.9702,-3.18561,37.0125,34.8342
1980-01-19 01:46:16,1,2.65714,-1.75714,5.65714,0.398466,1,1,80820.4,76249.9,1690,0.88112557,3.0241919,0.41992188,292.92383,10.9217,400.854,12.5251,-1.10688,36.5274,35.4795
1980-01-19 01:47:37,1,3.78571,-2.14286,5.82857,0.444008,1,1,59874.1,75710.4,1690,0.88112962,3.0241232,0.40795898,292.92358,9.46803,387.579,17.3893,-8.25156,31.4396,35.3538
1980-01-19 01:48:58,1,3.75,-3.05,4.1,0.362859,1,1,59258.2,78030.7,1690,0.88113374,3.0240536,0.39624023,292.92358,9.94504,385.128,25.5782,-2.32778,31.2775,35.8914
1980-01-19 01:50:19,1,3.87143,-3.92857,3.81429,0.369777,1,1,72296.9,59175.0,1690,0.88114196,3.0239153,0.38037109,292.92334,8.69175,379.979,36.2975,-0.691973,34.5476,31.2555
1980-01-19 01:51:40,1,3.38571,-4.18571,3.41429,0.386507,1,1,69089.0,48832.8,1690,0.88114607,3.0238457,0.3684082,292.9231,9.2733,388.352,38.7109,-4.60397,33.7724,28.3931
1980-01-19 01:53:01,1,4.2,-3.5,2.61429,0.429047,1,1,87919.2,47427.4,1690,0.8811543,3.0237074,0.35668945,292.9231,9.72928,377.801,28.2327,4.54324,38.0978,27.9816
1980-01-19 01:54:22,1,3.61667,-4.0,2.03333,0.554026,1,1,73406.5,56036.9,1690,0.88115835,3.0236387,0.34472656,292.92285,8.98829,383.167,36.8724,8.80779,34.8117,30.4155
1980-01-19 01:55:43,1,3.85714,-3.18571,2.21429,0.328261,1,1,119784.0,57873.2,1690,0.88116246,3.0235691,0.33300781,292.92285,10.9709,383.693,22.8419,5.8121,44.4689,30.9098
1980-01-19 01:57:04,1,3.94286,-3.12857,2.27143,0.298978,1,1,143864.0,78954.1,1690,0.88117069,3.0234308,0.32104492,292.92261,12.8545,389.194,18.4447,0.485568,48.7341,36.1032
1980-01-19 01:58:25,1,3.75714,-3.41429,2.21429,0.336852,1,1,139503.0,57355.1,1690,0.8811748,3.0233622,0.30517578,292.92236,11.0167,387.669,23.8068,3.47333,47.9898,30.7712
1980-01-19 01:59:46,1,3.6,-3.325,1.9,0.315238,1,1,115159.0,77392.7,1690,0.88117892,3.0232925,0.29345703,292.92236,11.9416,387.367,22.143,2.32068,43.602,35.7444
1980-01-19 02:01:07,1,3.6625,-2.9375,3.575,2.13637,1,1,66424.8,98400.2,1690,0.88118708,3.0231543,0.28149414,292.92212,10.0205,396.399,15.1412,7.31172,33.1149,40.3047
1980-01-19 02:02:28,1,4.51667,-2.65,5.76667,0.32059,1,1,94569.3,68914.6,1690,0.88119119,3.0230846,0.26977539,292.92212,8.92533,377.874,25.3883,-18.3448,39.5124,33.7298
1980-01-19 02:03:49,1,3.7,-2.41667,6.11667,0.377859,1,1,92560.1,63095.3,1690,0.88119531,3.023016,0.2578125,292.92188,8.87306,382.232,23.6808,-20.2473,39.0904,32.2743
1980-01-19 02:05:10,1,4.11429,-2.92857,6.1,0.38226,1,1,71505.4,66492.6,1690,0.88120347,3.0228777,0.24584961,292.92163,7.7968,377.887,27.8746,-19.3934,34.358,33.1318
1980-01-19 02:06:31,1,3.92857,-3.38571,5.64286,0.316228,1,1,81636.7,61304.7,1690,0.88120759,3.0228081,0.23413086,292.92163,7.3725,377.742,29.4718,-18.583,36.7114,31.813
1980-01-19 02:07:52,1,3.61429,-4.01429,4.78571,1.19318,1,1,90046.6,66318.7,1690,0.8812117,3.0227394,0.21850586,292.92163,8.39033,382.359,30.6666,-12.7962,38.556,33.0884
1980-01-19 02:09:13,1,4.18571,-4.14286,4.78571,0.376883,1,1,68564.0,70494.0,1690,0.88121986,3.0226011,0.20654297,292.92139,8.81117,392.581,23.3825,-1.37284,33.6439,34.1141
1980-01-19 02:10:34,1,3.775,-3.95,3.9,0.334477,1,1,59247.7,73689.5,1690,0.88122398,3.0225315,0.19458008,292.92114,8.98719,389.007,22.1363,-1.62189,31.2747,34.8787
1980-01-19 02:11:55,1,3.52857,-3.75714,3.87143,0.415024,1,1,72380.0,70488.8,1690,0.88122809,3.0224628,0.18286133,292.92114,9.83408,386.999,25.8368,-3.34185,34.5674,34.1128
1980-01-19 02:13:16,1,3.72857,-3.78571,3.18571,0.398466,1,1,85920.5,73959.3,1690,0.88123626,3.0223246,0.17089844,292.9209,11.2875,393.315,16.3389,1.90371,37.6623,34.9425
1980-01-19 02:14:37,1,4.38571,-4.75714,4.27143,0.287849,1,1,104461.0,62596.6,1690,0.88124037,3.0222549,0.15917969,292.9209,8.07218,385.94,21.2528,-2.90908,41.5274,32.1465
1980-01-19 02:15:58,1,4.425,-4.7375,4.25,0.298695,1,1,97177.4,70650.4,1690,0.88124448,3.0221853,0.14331055,292.92065,8.38541,381.833,27.1616,-5.04265,40.0535,34.1519
1980-01-19 02:17:19,1,4.31429,-4.7,4.38571,0.271804,1,1,111258.0,62272.7,1690,0.88125271,3.022047,0.13134766,292.92041,8.07475,383.317,21.982,-6.89096,42.8572,32.0632
1980-01-19 02:18:40,1,4.35714,-4.78571,4.55714,0.251526,1,1,99695.7,73391.7,1690,0.88125676,3.0219784,0.11962891,292.92041,7.99322,382.685,23.5464,-5.8731,40.5692,34.8082
1980-01-19 02:20:01,1,4.27143,-4.9,4.51429,0.346999,1,1,102872.0,64546.6,1690,0.88126498,3.0218401,0.10766602,292.92017,7.89629,383.463,21.7017,-6.14896,41.2103,32.6433
1980-01-19 02:21:22,1,3.95,-4.93333,4.58333,0.198606,1,1,100770.0,76066.4,1690,0.8812691,3.0217705,0.095947266,292.92017,8.17739,385.096,23.371,-7.65044,40.7872,35.4368
1980-01-19 02:22:43,1,4.31429,-4.45714,4.72857,0.437526,1,1,111919.0,61060.4,1690,0.88127315,3.0217018,0.083984375,292.91992,7.89473,384.875,20.3275,-7.92319,42.9843,31.7496
1980-01-19 02:24:04,1,4.15714,-2.32857,4.24286,0.352252,1,1,118923.0,76599.3,1690,0.88128138,3.0215635,0.068359375,292.91992,13.1507,390.106,10.9108,-5.91943,44.309,35.5607
1980-01-19 02:25:25,-1,nan,nan,nan,nan,1,4,nan,nan,1690,0.88128549,3.0214939,0.056396484,292.91968,nan,nan,nan,nan,nan,nan
1980-01-19 02:26:46,1,4.41429,-2.65714,4.37143,0.34641,1,1,105464.0,80626.6,1690,0.88128954,3.0214252,0.044677734,292.91968,12.7616,393.627,11.3116,-6.62621,41.7262,36.4836
1980-01-19 02:28:07,1,3.85714,-3.84286,4.55714,0.491561,1,1,103363.0,49969.9,1690,0.88129777,3.021287,0.032714844,292.91943,9.94848,395.609,11.2407,-4.86276,41.3086,28.7218
1980-01-19 02:29:28,1,4.52857,-4.6,4.67143,0.30439,1,1,113048.0,61992.9,1690,0.88130188,3.0212173,0.020751953,292.91919,8.92057,390.018,12.3249,-6.54421,43.2005,31.9911
1980-01-19 02:30:49,1,4.34286,-4.61429,4.78571,0.243277,1,1,103035.0,49888.4,1690,0.88130599,3.0211487,0.0090332031,292.91919,8.75597,389.761,12.5128,-6.72969,41.2431,28.6984
1980-01-19 02:32:10,1,4.4,-4.62857,4.32857,0.313636,1,1,110802.0,61577.3,1691,0.88131416,3.0210094,359.99707,292.91895,9.80833,387.874,16.369,-3.90729,42.7692,31.8837
1980-01-19 02:33:31,1,4.3,-4.4,4.78571,0.335638,1,1,115305.0,48726.7,1691,0.88131827,3.0209408,359.98145,292.91895,9.33064,386.986,14.928,-7.75211,43.6297,28.3623
1980-01-19 02:34:52,1,4.15714,-4.78571,4.38571,0.310365,1,1,118484.0,58980.3,1691,0.88132238,3.0208712,359.96948,292.9187,9.90138,387.748,20.6132,-6.46778,44.227,31.2041
1980-01-19 02:36:13,1,3.87143,-4.78571,4.11429,0.318799,1,1,112727.0,53128.8,1691,0.88133055,3.0207329,359.95776,292.9187,9.35297,385.96,17.3872,-5.20989,43.1391,29.6158
1980-01-19 02:37:34,1,3.52857,-5.14286,4.31429,0.333809,1,1,114002.0,58712.8,1691,0.88133466,3.0206642,359.9458,292.91846,9.76498,387.495,18.0422,-4.76416,43.3825,31.1332
1980-01-19 02:38:55,1,4.6,-4.74286,3.75714,0.271052,1,1,99731.6,49440.6,1691,0.88133878,3.0205946,359.93408,292.91846,8.75978,390.843,13.1281,-2.52193,40.5765,28.5693
1980-01-19 02:40:16,1,4.77143,-4.31429,3.18571,0.309707,1,1,106217.0,64967.8,1691,0.88134694,3.0204563,359.92212,292.91821,9.51091,393.292,9.25705,-0.422216,41.875,32.7497
1980-01-19 02:41:37,1,5.07143,-4.04286,2.84286,0.394348,1,1,108588.0,53065.8,1691,0.88135105,3.0203876,359.90625,292.91797,10.3109,397.97,6.80107,-0.95628,42.3398,29.5982
1980-01-19 02:42:58,1,4.0125,-4.25,3.75,0.30999,1,1,141644.0,73978.6,1691,0.88135517,3.020318,359.89453,292.91797,11.6951,388.279,17.8393,-4.59373,48.3568,34.9471
1980-01-19 02:44:19,1,4.2,-4.4,2.95714,0.139971,1,1,129557.0,54357.0,1691,0.88136333,3.0201797,359.88257,292.91772,9.95493,393.141,12.0679,-0.918996,46.2476,29.9561
1980-01-19 02:45:40,1,4.55714,-4.51429,2.9,0.24661,1,1,134610.0,65930.8,1691,0.88136744,3.0201111,359.87085,292.91772,10.3398,391.642,11.779,-0.0117882,47.1407,32.9915
1980-01-19 02:47:01,1,4.54286,-3.9,3.01429,0.312984,1,1,117812.0,55265.3,1691,0.88137567,3.0199718,359.85889,292.91748,10.5199,387.047,16.2374,-0.182765,44.1014,30.2054
1980-01-19 02:48:22,1,4.31429,-4.42857,2.55714,0.244949,1,1,125855.0,67688.5,1691,0.88137972,3.0199032,359.84717,292.91748,11.0145,388.407,17.2524,1.134,45.582,33.4284
1980-01-19 02:49:43,1,4.38571,-4.4,2.95714,0.274048,1,1,109838.0,56314.9,1691,0.88138384,3.0198336,359.8313,292.91724,9.88986,388.671,15.9859,-0.163719,42.5827,30.4909
1980-01-19 02:51:04,1,4.45714,-3.4,2.61429,0.312984,1,1,136640.0,74214.4,1691,0.88139206,3.0196953,359.81934,292.91699,13.274,391.98,12.0249,1.17096,47.4949,35.0027
1980-01-19 02:52:25,1,4.81429,-3.28571,2.72857,0.290671,1,1,93124.4,48422.7,1691,0.88139611,3.0196266,359.80762,292.91699,9.64995,397.497,9.839,-1.02367,39.2093,28.2737
1980-01-19 02:53:46,1,4.2625,-3.25,2.75,0.319912,1,1,131907.0,75016.3,1691,0.88140023,3.019557,359.79565,292.91675,14.0518,394.588,9.09289,0.809299,46.6651,35.1913
1980-01-19 02:55:07,1,4.42857,-2.94286,2.47143,0.312984,1,1,63607.1,41848.7,1691,0.88140845,3.0194187,359.78394,292.91675,10.7771,400.925,7.86569,-2.26818,32.4049,26.2844
1980-01-19 02:56:28,1,4.57143,-3.24286,1.85714,0.294854,1,1,121596.0,75612.9,1691,0.88141251,3.0193501,359.77197,292.9165,13.7339,398.383,6.93964,-0.687095,44.8041,35.331
1980-01-19 02:57:49,1,4.35,-3.725,2.15,0.263391,1,1,63981.7,38599.6,1691,0.88141662,3.0192804,359.75635,292.9165,10.1648,402.26,4.54964,-2.57391,32.5002,25.2435
1980-01-19 02:59:10,1,3.87143,-3.84286,2.44286,0.274791,1,1,71587.2,63823.0,1691,0.88142484,3.0191422,359.74438,292.91626,12.1544,400.335,-0.0308458,-1.28065,34.3776,32.4598
1980-01-19 03:00:31,1,3.97143,-3.78571,2.72857,0.38119,1,1,68046.6,37026.5,1691,0.88142896,3.0190735,359.73267,292.91626,10.5072,399.797,5.62266,-1.07696,33.5167,24.7238
1980-01-19 03:01:52,1,3.675,-3.3125,2.6,0.368061,1,1,70082.6,63660.8,1691,0.88143301,3.0190039,359.7207,292.91602,13.5279,401.694,2.95196,-0.696408,34.0144,32.4186
1980-01-19 03:03:13,1,4.25714,-3.18571,1.7,0.330738,1,1,36506.9,30202.7,1691,0.88144124,3.0188656,359.70874,292.91577,10.9044,400.835,7.64779,-9.58282,24.5496,22.3296
1980-01-19 03:04:34,1,3.5625,-2.525,1.8875,0.316721,1,1,83869.5,80769.4,1691,0.88144529,3.018796,359.69702,292.91577,16.6909,395.868,12.5267,-3.66451,37.21,36.5158
1980-01-19 03:05:55,1,3.325,-2.625,2.2375,0.28477,1,1,57865.1,45115.4,1691,0.8814494,3.0187273,359.68506,292.91553,12.9477,396.589,11.3199,-5.73061,30.9077,27.2911
1980-01-19 03:07:16,1,1.48571,-4.25714,5.6,0.448125,1,1,151307.0,53815.2,1691,0.88145757,3.018589,359.66943,292.91553,11.7232,391.326,27.4608,-11.7186,49.979,29.8065
1980-01-19 03:08:37,1,1.34286,-4.52857,6.2,1.05502,1,1,113431.0,53537.2,1691,0.88146168,3.0185194,359.65747,292.91528,10.3472,393.705,26.6115,-21.0398,43.2737,29.7294
1980-01-19 03:09:58,1,2.71667,-5.05,4.85,0.482758,1,1,71831.0,55462.0,1691,0.88146579,3.0184507,359.64575,292.91528,9.20667,382.98,40.6487,-15.3323,34.4361,30.2591
1980-01-19 03:11:19,1,3.2,-4.82857,4.94286,0.422819,1,1,96103.0,63048.8,1691,0.88147396,3.0183125,359.63379,292.91504,10.1251,379.733,35.4432,-14.8646,39.8315,32.2624
1980-01-19 03:12:40,1,2.82857,-5.1,5.57143,0.258725,1,1,64047.0,51301.4,1691,0.88147807,3.0182428,359.62207,292.91504,9.02868,380.769,38.4536,-16.9579,32.5168,29.102
1980-01-19 03:14:01,1,1.85714,-5.27143,6.08571,0.403556,1,1,92538.1,44798.6,1691,0.88148624,3.0181046,359.61011,292.91479,9.47521,383.974,33.8811,-18.5106,39.0857,27.1951
1980-01-19 03:15:22,1,2.05714,-5.58571,4.77143,0.905539,1,1,68414.7,42379.4,1691,0.88149035,3.0180359,359.59424,292.91455,9.46764,388.417,38.2221,-18.3773,33.6072,26.4506
1980-01-19 03:16:43,1,3.84286,-4.67143,4.48571,1.0583,1,1,101201.0,37316.3,1691,0.8814944,3.0179663,359.58252,292.91455,8.40705,380.569,29.6684,-9.69602,40.8743,24.8203
1980-01-19 03:18:04,1,1.65714,-5.42857,5.8,0.567127,1,1,72791.3,43774.0,1691,0.88150263,3.017828,359.57056,292.91431,9.8357,385.978,39.9077,-17.0944,34.6655,26.8823
1980-01-19 03:19:25,1,3.0,-5.15714,4.7,1.14749,1,1,114685.0,39149.7,1691,0.88150674,3.0177593,359.55884,292.91431,10.0373,384.44,29.5404,-17.5254,43.5122,25.4227
1980-01-19 03:20:46,1,2.6,-5.71429,4.94286,0.284282,1,1,66887.2,47145.0,1691,0.88151079,3.0176897,359.54688,292.91406,9.17216,385.501,34.5159,-12.1527,33.2299,27.8982
1980-01-19 03:22:07,1,4.7,-3.61667,5.16667,0.591843,1,1,76329.4,50771.4,1691,0.88151902,3.0175514,359.53491,292.91382,9.98725,367.6,28.2582,-14.1251,35.498,28.9512
1980-01-19 03:23:28,1,4.47143,-4.54286,3.64286,0.331355,1,1,61749.9,43802.5,1691,0.88152307,3.0174828,359.51929,292.91382,9.66881,369.969,34.4033,-3.74574,31.9283,26.891
1980-01-19 03:24:49,1,3.81429,-5.17143,4.17143,0.349927,1,1,82144.5,47388.8,1691,0.88152719,3.0174131,359.50757,292.91382,9.9559,377.353,31.5966,-5.95983,36.8254,27.9702
1980-01-19 03:26:10,1,4.18571,-5.35714,2.82857,0.287849,1,1,70290.8,48147.4,1691,0.88153535,3.0172749,359.49561,292.91357,8.73741,373.299,33.446,0.858989,34.0649,28.1932
1980-01-19 03:27:31,1,4.44286,-5.28571,2.94286,0.245781,1,1,79505.6,50980.6,1691,0.88153946,3.0172062,359.48364,292.91333,8.47246,370.577,30.0356,5.30346,36.229,29.0108
1980-01-19 03:28:52,1,4.71667,-4.76667,3.7,0.245515,1,1,47768.4,49120.3,1691,0.88154358,3.0171366,359.47192,292.91333,8.90619,369.933,34.5727,-1.19612,28.082,28.4766
1980-01-19 03:30:13,1,5.0,-4.45,2.9,0.221736,1,1,64364.1,55201.3,1691,0.88155174,3.0169983,359.45996,292.91309,9.74721,369.152,28.1255,0.444483,32.5972,30.1879
1980-01-19 03:31:34,1,4.8,-4.52857,2.84286,0.259513,1,1,55206.3,52568.7,1691,0.88155586,3.0169296,359.44824,292.91309,8.93513,369.753,32.7645,2.34205,30.1893,29.4592
1980-01-19 03:32:55,1,5.21429,-4.5,2.5,0.216654,1,1,70763.6,51284.0,1691,0.88155991,3.01686,359.43237,292.91284,8.41014,368.757,29.0794,5.06715,34.1793,29.097
1980-01-19 03:34:16,1,5.14286,-4.32857,2.5,0.344638,1,1,50882.5,49849.6,1691,0.88156813,3.0167217,359.42041,292.9126,8.84813,369.107,31.963,3.13366,28.9829,28.6872
1980-01-19 03:35:37,1,5.41429,-4.02857,2.38571,0.290671,1,1,62396.5,50311.3,1691,0.88157219,3.0166521,359.40869,292.9126,8.8161,368.045,26.9926,3.63037,32.095,28.8198
1980-01-19 03:36:58,1,1.8,-5.17143,3.91429,0.889852,1,1,68466.4,55538.3,1691,0.8815763,3.0165834,359.39697,292.9126,10.1,382.929,35.9737,-4.74718,33.6199,30.2799
1980-01-19 03:38:19,1,1.41429,-5.15714,4.42857,0.287849,1,1,72952.1,55571.7,1691,0.88158447,3.0164452,359.38501,292.91235,11.238,382.137,31.7146,-6.29876,34.7038,30.289
1980-01-19 03:39:40,1,0.585714,-5.78571,4.17143,0.30034,1,1,61135.8,48133.1,1691,0.88158858,3.0163755,359.37305,292.91211,10.0049,387.7,36.9539,-5.35667,31.7692,28.189
1980-01-19 03:41:01,1,0.957143,-5.38571,4.71429,0.341067,1,1,88713.1,49474.6,1691,0.8815968,3.0162373,359.35718,292.91187,10.597,383.835,31.7247,-4.84019,38.2694,28.5791
1980-01-19 03:42:22,1,-1.6,-4.3375,5.55,1.22774,1,1,81545.2,47395.1,1691,0.88160086,3.0161686,359.34546,292.91187,11.4736,394.204,30.3736,-12.592,36.6908,27.9721
1980-01-19 03:43:43,1,-2.57143,-4.15714,5.57143,0.650902,1,1,103815.0,42132.7,1691,0.88160497,3.016099,359.33374,292.91187,11.6687,398.326,23.2031,-9.18129,41.3988,26.3735
1980-01-19 03:45:04,1,-2.81429,-3.32857,5.8,0.27848,1,1,89662.0,54017.5,1691,0.88161314,3.0159607,359.32178,292.91162,12.568,396.541,19.3674,-10.4706,38.4735,29.8624
1980-01-19 03:46:25,1,-2.6,-3.9,6.14286,0.139971,1,1,101766.0,37731.3,1691,0.88161725,3.015892,359.30981,292.91138,10.8767,395.552,23.3144,-13.3305,40.9882,24.9579
1980-01-19 03:47:46,1,-2.8,-4.2125,4.6625,1.04328,1,1,106010.0,55427.0,1691,0.88162136,3.0158224,359.2981,292.91138,11.7579,397.755,28.0428,-0.190405,41.8343,30.2495
1980-01-19 03:49:07,1,-1.18571,-0.814286,2.05714,0.794111,1,1,75724.6,68645.1,1691,0.88162953,3.0156841,359.28223,292.91113,15.3637,384.683,4.96652,3.91468,35.3571,33.6638
1980-01-19 03:50:28,1,-1.64286,0.0285714,2.17143,0.312984,1,1,73314.9,76358.8,1691,0.88163364,3.0156155,359.27051,292.91113,16.0945,385.759,4.47825,4.47439,34.79,35.5048
1980-01-19 03:51:49,1,0.4625,0.4125,2.8375,1.13832,1,1,68987.3,74578.7,1691,0.88163769,3.0155458,359.25854,292.91089,16.5529,384.484,6.08377,3.15339,33.7476,35.0885
1980-01-19 03:53:10,1,-0.342857,-0.0285714,2.57143,1.43754,1,1,72572.5,70571.5,1691,0.88164592,3.0154076,359.24658,292.91064,15.8119,381.898,4.44679,4.58428,34.6134,34.1328
1980-01-19 03:54:31,1,-0.128571,0.128571,2.97143,0.378504,1,1,77218.3,73491.4,1691,0.88164997,3.0153389,359.23486,292.91064,16.8237,381.063,4.85226,5.80388,35.7041,34.8318
1980-01-19 03:55:52,1,1.24286,-0.228571,3.25714,0.482341,1,1,62433.0,63347.5,1691,0.88165408,3.0152693,359.22314,292.91064,16.3618,383.059,2.08549,4.72927,32.1044,32.3387
1980-01-19 03:57:13,1,1.32857,2.04286,2.7,0.66884,1,1,68024.8,67237.1,1691,0.88166225,3.015131,359.21118,292.9104,16.408,382.126,2.09357,4.88607,33.5113,33.3167
1980-01-19 03:58:34,1,-0.583333,-0.983333,3.0,0.787048,1,1,70248.1,63088.2,1691,0.88166636,3.0150623,359.19531,292.91016,16.3765,381.932,-0.819883,4.69705,34.0545,32.2725
1980-01-19 03:59:55,1,-0.2875,0.75,3.15,0.680877,1,1,65521.4,70819.4,1691,0.88167048,3.0149927,359.18359,292.91016,17.5705,383.477,2.47238,5.47913,32.8889,34.1928
1980-01-19 04:01:16,1,0.314286,-0.171429,3.02857,0.718843,1,1,63046.0,64156.9,1691,0.88167864,3.0148544,359.17163,292.90991,17.2507,382.331,1.14361,6.03669,32.2617,32.5447
1980-01-19 04:02:37,1,-0.985714,1.1,5.31429,0.306394,1,1,61301.7,50433.3,1691,0.88168275,3.0147858,359.15991,292.90991,16.9499,379.735,12.5359,4.52042,31.8122,28.8547
1980-01-19 04:03:58,1,-1.84286,1.48571,5.42857,0.38545,1,1,48949.0,50549.5,1691,0.88168681,3.0147161,359.14795,292.90967,16.9527,377.271,14.0872,6.9007,28.4269,28.8879